Orbital Elements at Epoch 2459200.5 (2020-Dec-17.0) TDB
Reference: JPL 16 (heliocentric ecliptic J2000)
Element | Value | Uncertainty (1-sigma) | Units |
e | .06723996379929083 | 8.1614e-08 | |
a | 2.613196164546245 | 2.6839e-08 | au |
q | 2.43748494904171 | 2.0389e-07 | au |
i | 5.228860112321241 | 7.7811e-06 | deg |
node | 235.514713066021 | 6.393e-05 | deg |
peri | 317.6273065289695 | 8.1894e-05 | deg |
M | 68.50213635644624 | 4.5429e-05 | deg |
tp | 2458906.898641889026 (2020-Feb-27.39864189) | 0.00019693 | TDB |
period | 1542.966315239658 4.22 | 2.377e-05 6.508e-08 | d yr |
n | .2333168238634449 | 3.5944e-09 | deg/d |
Q | 2.78890738005078 | 2.8643e-08 | au |
|
| | Orbit Determination Parameters
Additional Information
|